sat.trackr.live / text

‹ back to catalog

SMILE

NORAD 69123 · 2026-109A

PAYLOAD ACTIVE UNKNOWN

§ Identity

Operator
Country
ESA
Launch date
2026-05-19
Launch site
FRGUI
Launch vehicle
Mass (kg)
RCS (m²)

Purposes: science

External: N2YO · Heavens-Above · Gunter

§ Orbital elements

Epoch: 2026-09-17T05:25:41.305728Z

Period
3,031.01 min
Inclination
70.0141°
Eccentricity
0.8169204
Mean motion
0.47508927 rev/d
Perigee alt
6,323.5 km
Apogee alt
119,675.2 km
Semi-major
69,377.5 km
B*
0.0000e+0
RAAN
206.2461°
Arg perigee
285.7290°
Mean anomaly
5.5729°
Rev number
38

§ Raw data

SMILE1 69123U 26109A   26260.22617252  .00000590  00000+0  00000+0 0  99942 69123  70.0141 206.2461 8169204 285.7290   5.5729  0.47508927   381

JSON: /api/v1/satellites/69123 · /tle

For live sub-satellite position, see the globe view (requires WebGL).

§ Visibility from observer

Set your observer location to see the next 7 days of passes ≥ 10°. The values pass through the URL so the page stays shareable.

No JS? Fill the form by hand. The geolocation button needs JavaScript.